QPF
0.00 0.00 0.00 0.00 0.00 0.00 0.00 0.00 0.00 0.00 0.00 0.00 0.00 0.00 0.00 0.00 0.00 0.00 0.00 0.00 0.00 0.00 0.00 0.00 0.00 0.01 0.01 0.02 0.03 0.05 0.06 0.06 0.09 0.11 0.12 0.18 0.23 0.29 0.30 0.28 0.27 0.27 0.27 0.27
0.00 0.00 0.00 0.00 0.00 0.00 0.00 0.00 0.00 0.00 0.00 0.00 0.00 0.00 0.00 0.00 0.00 0.00 0.00 0.00 0.00 0.01 0.01 0.02 0.02 0.02 0.02 0.03 0.05 0.07 0.08 0.11 0.15 0.21 0.28 0.37 0.44 0.45 0.43 0.42 0.41 0.39 0.38 0.37
0.00 0.00 0.00 0.00 0.00 0.00 0.00 0.00 0.00 0.00 0.00 0.00 0.00 0.00 0.00 0.00 0.00 0.00 0.00 0.00 0.00 0.01 0.01 0.02 0.03 0.04 0.06 0.09 0.10 0.10 0.09 0.11 0.16 0.22 0.31 0.42 0.45 0.47 0.50 0.52 0.53 0.49 0.42 0.35
0.00 0.00 0.00 0.00 0.00 0.00 0.00 0.00 0.00 0.00 0.00 0.00 0.00 0.00 0.00 0.00 0.00 0.00 0.00 0.00 0.00 0.00 0.01 0.02 0.03 0.05 0.06 0.07 0.08 0.08 0.09 0.11 0.13 0.17 0.25 0.33 0.44 0.49 0.54 0.58 0.56 0.50 0.43 0.36
0.00 0.00 0.00 0.00 0.00 0.00 0.00 0.00 0.00 0.00 0.00 0.00 0.00 0.00 0.00 0.00 0.00 0.00 0.00 0.00 0.00 0.00 0.00 0.01 0.01 0.02 0.02 0.03 0.04 0.05 0.08 0.09 0.10 0.13 0.17 0.24 0.36 0.47 0.54 0.53 0.49 0.43 0.36 0.30
0.00 0.00 0.00 0.00 0.00 0.00 0.00 0.00 0.00 0.00 0.00 0.00 0.00 0.00 0.00 0.00 0.00 0.00 0.00 0.00 0.00 0.00 0.00 0.00 0.00 0.01 0.01 0.02 0.02 0.03 0.05 0.06 0.08 0.10 0.13 0.21 0.34 0.47 0.53 0.53 0.51 0.46 0.37 0.29
0.00 0.00 0.00 0.00 0.00 0.00 0.00 0.00 0.00 0.00 0.00 0.00 0.00 0.00 0.00 0.00 0.00 0.00 0.00 0.00 0.00 0.00 0.00 0.00 0.00 0.00 0.01 0.01 0.01 0.02 0.04 0.05 0.06 0.08 0.12 0.16 0.23 0.33 0.40 0.41 0.37 0.30 0.23 0.18
0.00 0.00 0.00 0.00 0.00 0.00 0.00 0.00 0.00 0.00 0.00 0.00 0.00 0.00 0.00 0.00 0.00 0.00 0.00 0.00 0.00 0.00 0.00 0.00 0.00 0.00 0.00 0.00 0.01 0.01 0.03 0.06 0.07 0.09 0.13 0.14 0.16 0.18 0.20 0.20 0.19 0.16 0.12 0.09
0.00 0.00 0.00 0.00 0.00 0.00 0.00 0.00 0.00 0.00 0.00 0.00 0.00 0.00 0.00 0.00 0.00 0.00 0.00 0.00 0.00 0.00 0.00 0.00 0.00 0.00 0.00 0.00 0.01 0.02 0.04 0.07 0.11 0.15 0.17 0.17 0.16 0.15 0.14 0.11 0.10 0.08 0.07 0.05
0.00 0.00 0.00 0.00 0.00 0.00 0.00 0.00 0.00 0.00 0.00 0.00 0.00 0.00 0.00 0.00 0.00 0.00 0.00 0.00 0.00 0.00 0.00 0.00 0.00 0.00 0.00 0.00 0.01 0.02 0.04 0.08 0.14 0.18 0.21 0.20 0.17 0.15 0.12 0.09 0.07 0.05 0.03 0.02
0.00 0.00 0.00 0.00 0.00 0.00 0.00 0.00 0.00 0.00 0.00 0.00 0.00 0.00 0.00 0.00 0.00 0.00 0.00 0.00 0.00 0.00 0.00 0.00 0.00 0.00 0.00 0.01 0.03 0.06 0.09 0.13 0.17 0.24 0.28 0.24 0.17 0.15 0.13 0.09 0.05 0.03 0.02 0.01
0.00 0.00 0.00 0.00 0.00 0.00 0.00 0.00 0.00 0.00 0.00 0.00 0.00 0.00 0.00 0.00 0.00 0.00 0.00 0.00 0.00 0.00 0.00 0.00 0.00 0.01 0.02 0.04 0.07 0.11 0.15 0.21 0.27 0.33 0.37 0.35 0.28 0.23 0.19 0.13 0.07 0.04 0.03 0.02
0.00 0.00 0.00 0.00 0.00 0.00 0.00 0.00 0.00 0.00 0.00 0.00 0.00 0.00 0.00 0.00 0.00 0.00 0.00 0.00 0.00 0.00 0.00 0.00 0.01 0.01 0.04 0.06 0.12 0.22 0.30 0.33 0.35 0.42 0.47 0.49 0.39 0.31 0.27 0.16 0.08 0.05 0.02 0.01
0.00 0.00 0.00 0.00 0.00 0.00 0.00 0.00 0.00 0.00 0.00 0.00 0.00 0.00 0.00 0.00 0.00 0.00 0.00 0.00 0.00 0.00 0.00 0.00 0.01 0.02 0.04 0.08 0.11 0.18 0.24 0.28 0.31 0.29 0.34 0.43 0.43 0.33 0.21 0.12 0.06 0.03 0.02 0.01
0.00 0.00 0.00 0.00 0.00 0.00 0.00 0.00 0.00 0.00 0.00 0.00 0.00 0.00 0.00 0.00 0.00 0.00 0.00 0.00 0.00 0.00 0.00 0.00 0.00 0.02 0.05 0.07 0.08 0.09 0.09 0.09 0.12 0.15 0.18 0.23 0.21 0.18 0.15 0.11 0.06 0.02 0.01 0.00
0.00 0.00 0.00 0.00 0.00 0.00 0.00 0.00 0.00 0.00 0.00 0.00 0.00 0.00 0.00 0.00 0.00 0.00 0.00 0.00 0.00 0.00 0.00 0.00 0.00 0.02 0.04 0.05 0.04 0.03 0.02 0.03 0.05 0.08 0.11 0.13 0.13 0.12 0.10 0.07 0.03 0.01 0.00 0.00
0.00 0.00 0.00 0.00 0.00 0.00 0.00 0.00 0.00 0.00 0.00 0.00 0.00 0.00 0.00 0.00 0.00 0.00 0.00 0.00 0.00 0.00 0.00 0.00 0.00 0.00 0.01 0.01 0.01 0.01 0.01 0.01 0.03 0.06 0.08 0.10 0.12 0.12 0.09 0.05 0.02 0.00 0.00 0.00
0.00 0.00 0.00 0.00 0.00 0.00 0.00 0.00 0.00 0.00 0.00 0.00 0.00 0.00 0.00 0.00 0.00 0.00 0.00 0.00 0.00 0.00 0.00 0.00 0.00 0.00 0.00 0.00 0.00 0.00 0.00 0.01 0.02 0.05 0.07 0.08 0.09 0.08 0.07 0.04 0.02 0.01 0.00 0.00
0.00 0.00 0.00 0.00 0.00 0.00 0.00 0.00 0.00 0.00 0.00 0.00 0.00 0.00 0.00 0.00 0.00 0.00 0.00 0.00 0.00 0.00 0.00 0.00 0.00 0.00 0.00 0.00 0.00 0.00 0.00 0.01 0.02 0.06 0.08 0.07 0.07 0.07 0.05 0.03 0.03 0.02 0.01 0.00
0.00 0.00 0.00 0.00 0.00 0.00 0.00 0.00 0.00 0.00 0.00 0.00 0.00 0.00 0.00 0.00 0.00 0.00 0.00 0.00 0.00 0.00 0.00 0.00 0.00 0.00 0.00 0.00 0.00 0.00 0.00 0.01 0.03 0.06 0.08 0.06 0.06 0.06 0.05 0.04 0.03 0.02 0.01 0.00
0.00 0.00 0.00 0.00 0.00 0.00 0.00 0.00 0.00 0.00 0.00 0.00 0.00 0.00 0.00 0.00 0.00 0.00 0.00 0.00 0.00 0.00 0.00 0.00 0.00 0.00 0.00 0.00 0.00 0.00 0.00 0.01 0.02 0.04 0.05 0.05 0.05 0.05 0.05 0.04 0.02 0.01 0.00 0.00
0.00 0.00 0.00 0.00 0.00 0.00 0.00 0.00 0.00 0.00 0.00 0.00 0.00 0.00 0.00 0.00 0.00 0.00 0.00 0.00 0.00 0.00 0.00 0.00 0.00 0.00 0.00 0.00 0.00 0.00 0.00 0.01 0.01 0.03 0.05 0.05 0.04 0.02 0.02 0.04 0.02 0.01 0.01 0.00
0.00 0.00 0.00 0.00 0.00 0.00 0.00 0.00 0.00 0.00 0.00 0.00 0.00 0.00 0.00 0.00 0.00 0.00 0.00 0.00 0.00 0.00 0.00 0.00 0.00 0.00 0.00 0.00 0.00 0.00 0.00 0.01 0.02 0.03 0.05 0.04 0.02 0.01 0.02 0.04 0.02 0.02 0.01 0.00
0.00 0.00 0.00 0.00 0.00 0.00 0.00 0.00 0.00 0.00 0.00 0.00 0.00 0.00 0.00 0.00 0.00 0.00 0.00 0.00 0.00 0.00 0.00 0.00 0.00 0.00 0.00 0.00 0.00 0.00 0.01 0.01 0.02 0.04 0.04 0.03 0.02 0.01 0.01 0.03 0.03 0.02 0.02 0.01
0.00 0.00 0.00 0.01 0.01 0.01 0.01 0.01 0.00 0.00 0.00 0.00 0.00 0.00 0.00 0.00 0.00 0.00 0.00 0.00 0.00 0.00 0.00 0.00 0.00 0.00 0.00 0.00 0.00 0.00 0.00 0.01 0.02 0.03 0.03 0.03 0.03 0.02 0.02 0.02 0.02 0.02 0.02 0.01
0.01 0.01 0.02 0.02 0.03 0.03 0.03 0.02 0.01 0.01 0.00 0.00 0.00 0.01 0.01 0.01 0.00 0.00 0.00 0.00 0.00 0.00 0.00 0.00 0.00 0.00 0.00 0.00 0.00 0.00 0.00 0.01 0.02 0.03 0.02 0.02 0.02 0.02 0.01 0.01 0.01 0.00 0.01 0.00
MSLP
1013.01 1013.31 1013.49 1013.58 1013.60 1013.57 1013.53 1013.48 1013.41 1013.31 1013.16 1012.93 1012.63 1012.27 1011.86 1011.44 1011.05 1010.71 1010.43 1010.22 1010.07 1009.97 1009.89 1009.84 1009.81 1009.81 1009.86 1009.96 1010.12 1010.33 1010.57 1010.82 1011.04 1011.22 1011.35 1011.45 1011.52 1011.62 1011.75 1011.94 1012.19 1012.49 1012.80 1013.08
1013.25 1013.50 1013.63 1013.69 1013.69 1013.67 1013.64 1013.62 1013.58 1013.52 1013.40 1013.21 1012.94 1012.61 1012.23 1011.85 1011.50 1011.19 1010.95 1010.78 1010.64 1010.53 1010.43 1010.32 1010.21 1010.11 1010.04 1010.01 1010.05 1010.15 1010.29 1010.47 1010.64 1010.80 1010.94 1011.05 1011.15 1011.28 1011.44 1011.67 1011.95 1012.28 1012.62 1012.93
1013.41 1013.60 1013.69 1013.72 1013.71 1013.70 1013.71 1013.72 1013.72 1013.69 1013.60 1013.43 1013.17 1012.85 1012.49 1012.13 1011.80 1011.54 1011.34 1011.21 1011.11 1011.02 1010.92 1010.79 1010.62 1010.44 1010.27 1010.13 1010.04 1010.02 1010.06 1010.15 1010.27 1010.40 1010.52 1010.64 1010.76 1010.91 1011.11 1011.36 1011.67 1012.02 1012.39 1012.72
1013.51 1013.63 1013.68 1013.69 1013.70 1013.72 1013.78 1013.84 1013.89 1013.90 1013.83 1013.66 1013.40 1013.06 1012.68 1012.31 1011.99 1011.74 1011.58 1011.48 1011.42 1011.37 1011.29 1011.16 1010.97 1010.74 1010.50 1010.26 1010.07 1009.94 1009.89 1009.90 1009.95 1010.04 1010.14 1010.26 1010.40 1010.57 1010.78 1011.05 1011.37 1011.73 1012.11 1012.45
1013.58 1013.63 1013.65 1013.66 1013.70 1013.78 1013.89 1014.03 1014.14 1014.19 1014.13 1013.96 1013.67 1013.29 1012.87 1012.46 1012.10 1011.84 1011.67 1011.59 1011.56 1011.54 1011.50 1011.38 1011.20 1010.95 1010.66 1010.37 1010.11 1009.90 1009.77 1009.71 1009.71 1009.76 1009.85 1009.96 1010.10 1010.27 1010.49 1010.76 1011.08 1011.43 1011.79 1012.13
1013.64 1013.63 1013.62 1013.65 1013.73 1013.88 1014.08 1014.30 1014.47 1014.57 1014.53 1014.34 1014.01 1013.58 1013.08 1012.59 1012.17 1011.85 1011.65 1011.55 1011.53 1011.54 1011.52 1011.44 1011.28 1011.04 1010.75 1010.44 1010.14 1009.89 1009.71 1009.60 1009.57 1009.59 1009.66 1009.77 1009.90 1010.07 1010.28 1010.53 1010.83 1011.15 1011.48 1011.79
1013.69 1013.64 1013.62 1013.67 1013.81 1014.03 1014.32 1014.61 1014.86 1015.00 1014.98 1014.78 1014.41 1013.90 1013.32 1012.74 1012.22 1011.82 1011.55 1011.41 1011.36 1011.37 1011.37 1011.33 1011.21 1011.01 1010.75 1010.45 1010.16 1009.90 1009.71 1009.59 1009.54 1009.55 1009.61 1009.71 1009.83 1009.99 1010.17 1010.39 1010.63 1010.91 1011.18 1011.45
1013.74 1013.66 1013.64 1013.72 1013.91 1014.20 1014.56 1014.93 1015.23 1015.41 1015.40 1015.19 1014.78 1014.21 1013.54 1012.86 1012.24 1011.74 1011.39 1011.18 1011.10 1011.09 1011.10 1011.09 1011.02 1010.88 1010.67 1010.42 1010.17 1009.95 1009.77 1009.66 1009.62 1009.64 1009.70 1009.79 1009.90 1010.03 1010.18 1010.35 1010.53 1010.73 1010.94 1011.15
1013.76 1013.67 1013.67 1013.77 1013.99 1014.33 1014.74 1015.15 1015.49 1015.69 1015.69 1015.47 1015.02 1014.40 1013.67 1012.91 1012.20 1011.61 1011.17 1010.90 1010.76 1010.73 1010.75 1010.77 1010.75 1010.67 1010.53 1010.36 1010.18 1010.01 1009.88 1009.81 1009.79 1009.83 1009.90 1009.99 1010.09 1010.20 1010.30 1010.41 1010.53 1010.66 1010.79 1010.92
1013.76 1013.68 1013.68 1013.80 1014.04 1014.39 1014.80 1015.22 1015.56 1015.75 1015.75 1015.51 1015.05 1014.41 1013.64 1012.83 1012.06 1011.41 1010.91 1010.58 1010.40 1010.35 1010.37 1010.41 1010.44 1010.42 1010.37 1010.27 1010.17 1010.07 1010.01 1009.98 1010.01 1010.07 1010.16 1010.26 1010.35 1010.44 1010.51 1010.57 1010.63 1010.68 1010.74 1010.80
1013.73 1013.68 1013.70 1013.82 1014.04 1014.35 1014.72 1015.09 1015.38 1015.54 1015.51 1015.25 1014.79 1014.14 1013.38 1012.57 1011.79 1011.12 1010.59 1010.23 1010.03 1009.97 1009.99 1010.05 1010.12 1010.17 1010.18 1010.17 1010.14 1010.11 1010.11 1010.14 1010.21 1010.30 1010.41 1010.53 1010.63 1010.71 1010.77 1010.80 1010.81 1010.82 1010.82 1010.82
1013.72 1013.71 1013.74 1013.83 1014.00 1014.23 1014.50 1014.77 1014.97 1015.06 1014.97 1014.70 1014.24 1013.62 1012.90 1012.13 1011.39 1010.74 1010.23 1009.88 1009.68 1009.62 1009.65 1009.73 1009.83 1009.93 1009.99 1010.04 1010.07 1010.11 1010.15 1010.23 1010.33 1010.46 1010.60 1010.73 1010.85 1010.95 1011.01 1011.04 1011.05 1011.03 1011.01 1010.99
1013.75 1013.77 1013.80 1013.85 1013.93 1014.05 1014.19 1014.31 1014.39 1014.36 1014.21 1013.91 1013.46 1012.88 1012.22 1011.53 1010.87 1010.30 1009.85 1009.53 1009.36 1009.31 1009.36 1009.46 1009.58 1009.70 1009.80 1009.89 1009.96 1010.03 1010.11 1010.21 1010.34 1010.49 1010.65 1010.82 1010.97 1011.09 1011.19 1011.25 1011.28 1011.28 1011.27 1011.25
1013.84 1013.89 1013.90 1013.89 1013.87 1013.84 1013.82 1013.78 1013.69 1013.55 1013.31 1012.97 1012.53 1012.01 1011.43 1010.84 1010.29 1009.81 1009.44 1009.19 1009.07 1009.05 1009.11 1009.23 1009.36 1009.49 1009.61 1009.71 1009.80 1009.88 1009.97 1010.08 1010.22 1010.38 1010.56 1010.75 1010.93 1011.11 1011.25 1011.37 1011.46 1011.52 1011.56 1011.58
1013.99 1014.05 1014.02 1013.94 1013.80 1013.63 1013.44 1013.22 1012.98 1012.70 1012.37 1011.99 1011.56 1011.09 1010.59 1010.11 1009.67 1009.30 1009.03 1008.86 1008.79 1008.80 1008.89 1009.02 1009.16 1009.29 1009.41 1009.51 1009.59 1009.67 1009.75 1009.85 1009.97 1010.13 1010.31 1010.52 1010.75 1010.97 1011.18 1011.38 1011.55 1011.69 1011.80 1011.89
1014.14 1014.18 1014.12 1013.96 1013.71 1013.41 1013.06 1012.69 1012.31 1011.91 1011.50 1011.07 1010.64 1010.21 1009.79 1009.40 1009.06 1008.79 1008.61 1008.51 1008.49 1008.55 1008.66 1008.80 1008.94 1009.08 1009.20 1009.29 1009.36 1009.41 1009.47 1009.55 1009.65 1009.79 1009.97 1010.18 1010.43 1010.70 1010.98 1011.25 1011.51 1011.75 1011.95 1012.13
1014.23 1014.24 1014.13 1013.90 1013.58 1013.17 1012.71 1012.22 1011.72 1011.22 1010.74 1010.27 1009.83 1009.42 1009.05 1008.73 1008.47 1008.28 1008.16 1008.12 1008.15 1008.24 1008.38 1008.53 1008.69 1008.83 1008.95 1009.04 1009.10 1009.15 1009.18 1009.23 1009.30 1009.41 1009.57 1009.78 1010.04 1010.34 1010.67 1011.01 1011.36 1011.69 1011.99 1012.26
1014.19 1014.16 1014.01 1013.74 1013.37 1012.90 1012.37 1011.81 1011.24 1010.68 1010.14 1009.64 1009.19 1008.78 1008.43 1008.14 1007.92 1007.76 1007.68 1007.68 1007.73 1007.85 1008.00 1008.18 1008.36 1008.52 1008.66 1008.77 1008.85 1008.89 1008.92 1008.94 1008.99 1009.07 1009.20 1009.38 1009.63 1009.94 1010.30 1010.69 1011.10 1011.51 1011.90 1012.26
1014.00 1013.93 1013.76 1013.48 1013.10 1012.62 1012.08 1011.50 1010.90 1010.31 1009.74 1009.20 1008.72 1008.29 1007.92 1007.62 1007.39 1007.24 1007.16 1007.15 1007.22 1007.34 1007.51 1007.71 1007.93 1008.13 1008.32 1008.47 1008.58 1008.65 1008.69 1008.72 1008.75 1008.81 1008.91 1009.06 1009.29 1009.58 1009.94 1010.36 1010.80 1011.27 1011.73 1012.16
1013.69 1013.61 1013.45 1013.19 1012.84 1012.40 1011.89 1011.32 1010.73 1010.13 1009.54 1008.97 1008.45 1007.97 1007.55 1007.20 1006.93 1006.73 1006.61 1006.57 1006.61 1006.73 1006.91 1007.13 1007.39 1007.65 1007.90 1008.11 1008.29 1008.42 1008.51 1008.56 1008.60 1008.65 1008.72 1008.85 1009.04 1009.30 1009.64 1010.05 1010.51 1011.01 1011.51 1012.00
1013.36 1013.30 1013.18 1012.98 1012.69 1012.32 1011.87 1011.35 1010.77 1010.17 1009.56 1008.96 1008.38 1007.83 1007.34 1006.90 1006.54 1006.26 1006.06 1005.96 1005.96 1006.05 1006.22 1006.46 1006.75 1007.07 1007.39 1007.69 1007.96 1008.17 1008.33 1008.44 1008.51 1008.57 1008.64 1008.74 1008.90 1009.13 1009.44 1009.82 1010.27 1010.78 1011.31 1011.84
1013.17 1013.16 1013.11 1012.99 1012.78 1012.49 1012.10 1011.62 1011.07 1010.47 1009.83 1009.17 1008.52 1007.89 1007.30 1006.75 1006.28 1005.89 1005.59 1005.40 1005.32 1005.35 1005.49 1005.73 1006.05 1006.41 1006.80 1007.19 1007.55 1007.86 1008.11 1008.30 1008.44 1008.54 1008.62 1008.72 1008.86 1009.05 1009.32 1009.68 1010.11 1010.61 1011.15 1011.71
1013.25 1013.33 1013.36 1013.33 1013.20 1012.97 1012.63 1012.18 1011.63 1011.01 1010.33 1009.61 1008.88 1008.15 1007.44 1006.78 1006.19 1005.67 1005.26 1004.95 1004.77 1004.72 1004.81 1005.01 1005.32 1005.71 1006.15 1006.61 1007.05 1007.47 1007.82 1008.10 1008.32 1008.48 1008.61 1008.72 1008.86 1009.04 1009.28 1009.61 1010.02 1010.50 1011.05 1011.62
1013.71 1013.89 1014.01 1014.04 1013.96 1013.76 1013.43 1012.98 1012.41 1011.74 1011.00 1010.21 1009.39 1008.57 1007.76 1006.99 1006.27 1005.64 1005.10 1004.67 1004.38 1004.22 1004.21 1004.35 1004.61 1004.99 1005.44 1005.94 1006.46 1006.95 1007.40 1007.78 1008.09 1008.34 1008.53 1008.69 1008.84 1009.03 1009.27 1009.58 1009.97 1010.44 1010.98 1011.57
1014.55 1014.82 1015.00 1015.07 1015.00 1014.78 1014.42 1013.91 1013.28 1012.55 1011.74 1010.88 1009.98 1009.08 1008.19 1007.33 1006.52 1005.78 1005.13 1004.58 1004.16 1003.88 1003.76 1003.79 1003.97 1004.29 1004.71 1005.22 1005.76 1006.32 1006.85 1007.32 1007.72 1008.06 1008.33 1008.55 1008.75 1008.96 1009.21 1009.52 1009.91 1010.38 1010.92 1011.52
1015.67 1016.00 1016.20 1016.24 1016.12 1015.84 1015.39 1014.79 1014.08 1013.26 1012.38 1011.46 1010.52 1009.58 1008.64 1007.73 1006.87 1006.05 1005.31 1004.66 1004.12 1003.71 1003.45 1003.36 1003.42 1003.64 1004.00 1004.46 1005.00 1005.57 1006.15 1006.69 1007.18 1007.61 1007.96 1008.26 1008.53 1008.79 1009.07 1009.39 1009.79 1010.26 1010.80 1011.40
Thickness
5767 5766 5759 5762 5768 5766 5763 5762 5763 5768 5779 5779 5776 5775 5780 5788 5792 5791 5792 5794 5794 5792 5796 5797 5796 5795 5794 5792 5789 5787 5784 5783 5780 5776 5772 5768 5765 5764 5762 5759 5756 5754 5751 5748
5758 5753 5760 5765 5764 5762 5758 5755 5757 5763 5771 5770 5767 5768 5773 5775 5775 5776 5776 5777 5779 5781 5782 5783 5784 5784 5783 5781 5780 5779 5778 5777 5775 5773 5770 5766 5763 5761 5759 5755 5750 5746 5743 5738
5748 5753 5763 5760 5756 5754 5754 5752 5751 5752 5761 5767 5760 5761 5761 5766 5769 5769 5768 5766 5767 5765 5766 5768 5769 5770 5771 5770 5770 5771 5771 5770 5769 5767 5764 5760 5755 5752 5750 5747 5743 5740 5735 5730
5747 5754 5754 5752 5749 5750 5744 5752 5749 5747 5745 5751 5752 5740 5760 5761 5759 5757 5757 5758 5757 5755 5756 5756 5757 5758 5759 5760 5762 5761 5761 5760 5759 5757 5754 5751 5745 5743 5743 5740 5737 5732 5727 5722
5740 5747 5745 5741 5744 5746 5744 5748 5745 5743 5740 5740 5749 5740 5756 5753 5747 5746 5746 5747 5748 5748 5747 5745 5746 5746 5747 5749 5749 5750 5749 5749 5748 5746 5744 5741 5739 5737 5735 5731 5726 5721 5718 5715
5743 5750 5748 5746 5748 5746 5745 5741 5742 5741 5738 5725 5739 5732 5737 5752 5743 5738 5737 5738 5738 5738 5739 5737 5737 5737 5737 5738 5738 5738 5737 5736 5736 5734 5733 5730 5728 5727 5723 5720 5716 5711 5709 5707
5732 5741 5748 5748 5739 5741 5738 5725 5717 5718 5724 5728 5734 5722 5733 5741 5737 5732 5729 5730 5732 5731 5730 5729 5728 5727 5726 5726 5726 5726 5724 5723 5723 5722 5720 5719 5717 5715 5712 5709 5707 5703 5701 5698
5717 5719 5737 5741 5735 5726 5726 5718 5700 5690 5702 5716 5726 5719 5734 5736 5733 5729 5726 5725 5724 5724 5724 5722 5722 5721 5720 5718 5716 5715 5713 5710 5710 5708 5706 5704 5702 5700 5700 5698 5696 5694 5692 5690
5719 5717 5733 5735 5737 5731 5719 5718 5718 5702 5705 5702 5718 5727 5731 5728 5723 5722 5721 5720 5719 5719 5718 5716 5716 5715 5712 5710 5707 5704 5701 5698 5696 5693 5690 5687 5685 5684 5683 5682 5682 5681 5680 5679
5728 5714 5729 5730 5730 5726 5724 5720 5710 5699 5685 5691 5708 5716 5718 5717 5717 5719 5718 5716 5716 5714 5712 5710 5708 5705 5702 5700 5697 5693 5689 5685 5682 5678 5674 5671 5668 5667 5666 5666 5666 5665 5666 5667
5731 5714 5720 5723 5717 5719 5716 5712 5706 5703 5695 5683 5685 5706 5726 5718 5715 5713 5714 5714 5711 5708 5706 5704 5700 5697 5693 5690 5685 5680 5675 5671 5666 5662 5658 5654 5652 5651 5650 5650 5651 5651 5653 5655
5728 5720 5712 5722 5729 5723 5715 5710 5704 5687 5686 5688 5683 5698 5729 5719 5713 5709 5707 5708 5707 5703 5700 5697 5693 5688 5683 5678 5673 5668 5663 5658 5653 5648 5645 5640 5637 5637 5635 5634 5637 5639 5641 5644
5721 5708 5699 5709 5713 5713 5707 5710 5705 5698 5690 5685 5681 5694 5721 5712 5707 5706 5703 5701 5699 5695 5692 5689 5684 5679 5674 5669 5663 5658 5653 5647 5643 5638 5635 5630 5627 5625 5624 5624 5626 5629 5631 5633
5718 5708 5700 5695 5706 5714 5707 5708 5704 5692 5683 5685 5689 5695 5707 5706 5702 5702 5700 5696 5692 5689 5684 5681 5676 5671 5666 5660 5655 5650 5645 5640 5635 5630 5627 5623 5620 5617 5615 5615 5617 5620 5622 5624
5714 5706 5709 5712 5715 5712 5707 5704 5703 5695 5690 5683 5689 5692 5698 5699 5697 5696 5692 5688 5685 5682 5678 5674 5669 5665 5659 5654 5649 5644 5640 5635 5630 5626 5622 5618 5616 5613 5611 5610 5610 5612 5614 5617
5709 5700 5703 5703 5708 5709 5703 5704 5702 5699 5698 5693 5690 5690 5701 5700 5695 5688 5684 5680 5677 5676 5674 5670 5665 5660 5654 5649 5645 5641 5636 5633 5629 5624 5621 5617 5614 5612 5608 5606 5606 5607 5608 5610
5709 5697 5690 5695 5707 5699 5693 5706 5704 5702 5703 5697 5687 5692 5698 5691 5686 5682 5679 5676 5673 5672 5669 5665 5661 5656 5651 5647 5642 5638 5634 5630 5627 5624 5621 5618 5614 5610 5607 5605 5604 5604 5604 5605
5698 5691 5688 5693 5691 5676 5704 5716 5707 5698 5699 5700 5696 5695 5692 5688 5686 5681 5677 5672 5669 5668 5665 5662 5658 5654 5650 5645 5640 5636 5633 5629 5626 5623 5621 5619 5615 5610 5606 5604 5603 5601 5601 5600
5697 5688 5687 5686 5682 5688 5702 5705 5699 5688 5687 5696 5691 5689 5687 5687 5679 5679 5680 5673 5667 5665 5662 5659 5655 5652 5647 5643 5638 5633 5630 5628 5625 5623 5620 5619 5615 5610 5606 5603 5600 5598 5596 5595
5689 5684 5681 5679 5665 5667 5688 5694 5693 5682 5674 5689 5684 5678 5677 5674 5665 5673 5678 5672 5666 5662 5658 5654 5651 5648 5643 5640 5636 5630 5628 5626 5624 5623 5620 5618 5615 5610 5607 5603 5599 5596 5593 5592
5685 5679 5674 5671 5666 5678 5689 5686 5682 5660 5664 5672 5671 5669 5668 5666 5665 5671 5671 5667 5663 5658 5654 5650 5646 5642 5639 5637 5632 5628 5626 5625 5624 5622 5618 5616 5613 5609 5605 5601 5597 5593 5591 5588
5678 5676 5670 5665 5656 5663 5676 5669 5654 5649 5658 5660 5661 5662 5663 5664 5667 5668 5666 5663 5658 5654 5650 5646 5641 5638 5636 5633 5628 5625 5624 5624 5622 5619 5615 5613 5610 5608 5604 5599 5595 5592 5588 5584
5675 5674 5667 5660 5659 5664 5661 5653 5650 5649 5648 5651 5653 5656 5658 5658 5659 5661 5660 5659 5656 5652 5648 5644 5639 5635 5632 5629 5626 5623 5623 5622 5619 5616 5613 5610 5608 5606 5602 5598 5594 5590 5586 5586
5677 5670 5657 5650 5653 5649 5644 5639 5635 5633 5634 5639 5642 5646 5648 5649 5652 5653 5653 5653 5652 5649 5645 5641 5637 5633 5629 5627 5624 5622 5621 5619 5616 5613 5610 5608 5605 5603 5600 5597 5594 5591 5588 5586
5656 5651 5641 5634 5630 5623 5621 5612 5611 5615 5618 5622 5627 5630 5632 5635 5638 5640 5643 5645 5645 5644 5642 5638 5634 5631 5628 5625 5621 5620 5618 5615 5613 5610 5608 5606 5604 5602 5598 5596 5593 5591 5588 5587
5621 5612 5606 5600 5588 5587 5587 5587 5590 5592 5596 5600 5603 5607 5611 5613 5617 5622 5627 5631 5635 5636 5636 5633 5631 5629 5627 5623 5619 5617 5615 5612 5610 5607 5605 5604 5602 5599 5596 5593 5588 5577 5579 5575